Location: Blue Pit
(43.1414°N, 93.2208°W)
Time: 01:50:07
(UTC+00:00)

USA 234 - Pass Details

Date: 18 November 2025
Orbit: 1100 x 1107 km, 123.0° (Epoch: 02 December)

Event Time Altitude Azimuth Distance (km) Brightness Sun altitude
Rises 12:23:31 0° 140° (SE) 3,915 7.3 -8.7°
Reaches altitude 10° 12:26:01 10° 144° (SE) 2,960 6.5 -8.2°
Maximum altitude 12:32:31 64° 225° (SW) 1,212 3.4 -7.1°
Drops below altitude 10° 12:39:01 10° 306° (NW) 2,970 4.9 -6.0°
Enters shadow 12:40:12 - 308° (NW) 3,417 5.2 -5.8°
